Syracuse, NY

10:42 AM EDT on March 30, 2017 (GMT -0400)
Syracuse Hancock International

Weather History for KSYR - October, 2011

Change the Weather History Date:

Thursday, October 20, 2011

  Actual Average Record
Temperature  
Mean Temperature 56 °F 49 °F  
Max Temperature 63 °F 58 °F 81 °F (1963)
Min Temperature 49 °F 40 °F 20 °F (1940)
Degree Days  
Heating Degree Days 9 16  
Month to date heating degree days 157 257  
Since 1 July heating degree days 227 424  
Cooling Degree Days 0 0  
Month to date cooling degree days 0 0  
Year to date cooling degree days 911 565  
Growing Degree Days 6 (Base 50)    
Moisture  
Dew Point 49 °F    
Average Humidity 69    
Maximum Humidity 86    
Minimum Humidity 51    
Precipitation  
Precipitation 0.26 in 0.11 in 1.87 in (2016)
Month to date precipitation 2.01 2.23  
Year to date precipitation 41.01 30.51  
Snow  
Snow 0.00 in 0.00 in 2.00 in (1952)
Month to date snowfall 0.0 0.1  
Since 1 July snowfall 0.0 0.1  
Since 1 September snowfall 0.0 0.1  
Snow Depth 0.00 in    
Sea Level Pressure  
Sea Level Pressure 29.32 in    
Wind  
Wind Speed 15 mph (South)    
Max Wind Speed 25 mph    
Max Gust Speed 32 mph    
Visibility 9 miles    
Events Rain    
T = Trace of Precipitation, MM = Missing Value Source: NWS Daily Summary

Daily Weather History Graph

Daily Weather History Graph

Search for Another Location

Airport or City:

Trip Planner

Search our weather history database for the weather conditions in past years. The results will help you decide how hot, cold, wet, or windy it might be!

Date:

Astronomy

Oct. 20, 2011 Rise Set
Actual Time 7:23 AM EDT 6:14 PM EDT
Civil Twilight 6:54 AM EDT 6:42 PM EDT
Nautical Twilight 6:21 AM EDT 7:15 PM EDT
Astronomical Twilight 5:48 AM EDT 7:48 PM EDT
Moon No Moon Rise 2:31 PM EDT (10/20)
Length of Visible Light 11h 48m
Length of Day
10h 50m
Last Quarter, 44% of the Moon is Illuminated
Oct 20
Last Quarter
Oct 26
New
Nov 2
First Quarter
Nov 10
Full
Nov 18
Last Quarter

Hourly Weather History & Observations

Time (EDT) Temp. Dew Point Humidity Pressure Visibility Wind Dir Wind Speed Gust Speed Precip Events Conditions
12:04 AM 55.4 °F 51.8 °F 88% 29.36 in 5.0 mi ESE 18.4 mph 31.1 mph 0.02 in Rain Light Rain
12:13 AM 55.4 °F 51.8 °F 88% 29.34 in 10.0 mi ESE 18.4 mph 27.6 mph 0.02 in Rain Light Rain
12:54 AM 57.0 °F 52.0 °F 83% 29.32 in 10.0 mi ESE 20.7 mph - 0.02 in   Overcast
1:02 AM 57.2 °F 51.8 °F 82% 29.33 in 10.0 mi ESE 21.9 mph 26.5 mph N/A   Overcast
1:11 AM 57.2 °F 51.8 °F 82% 29.32 in 10.0 mi ESE 17.3 mph - N/A   Overcast
1:54 AM 57.0 °F 53.1 °F 87% 29.29 in 5.0 mi ESE 19.6 mph - 0.03 in Rain Light Rain
2:54 AM 57.0 °F 53.1 °F 87% 29.27 in 7.0 mi ESE 18.4 mph 25.3 mph 0.10 in Rain Light Rain
3:45 AM 57.2 °F 53.6 °F 88% 29.25 in 10.0 mi ESE 19.6 mph - 0.01 in   Overcast
3:54 AM 57.9 °F 53.1 °F 84% 29.23 in 10.0 mi ESE 15.0 mph - 0.01 in   Overcast
4:14 AM 57.2 °F 53.6 °F 88% 29.22 in 10.0 mi ESE 16.1 mph - N/A   Mostly Cloudy
4:54 AM 57.9 °F 53.1 °F 84% 29.19 in 10.0 mi SE 15.0 mph 27.6 mph N/A   Mostly Cloudy
5:52 AM 59.0 °F 53.6 °F 82% 29.19 in 10.0 mi ESE 18.4 mph 24.2 mph N/A   Mostly Cloudy
5:54 AM 59.0 °F 54.0 °F 83% 29.18 in 10.0 mi ESE 18.4 mph 24.2 mph N/A   Mostly Cloudy
6:26 AM 59.0 °F 53.6 °F 82% 29.18 in 10.0 mi East 16.1 mph 21.9 mph 0.00 in Rain Light Rain
6:54 AM 59.0 °F 54.0 °F 83% 29.19 in 10.0 mi ESE 13.8 mph - 0.00 in Rain Light Rain
7:02 AM 59.0 °F 55.4 °F 88% 29.22 in 3.0 mi Variable 5.8 mph 23.0 mph 0.02 in Rain Heavy Rain
7:08 AM 59.0 °F 55.4 °F 88% 29.22 in 4.0 mi SSE 9.2 mph 23.0 mph 0.10 in Rain Rain
7:40 AM 57.2 °F 55.4 °F 94% 29.22 in 10.0 mi East 3.5 mph - 0.12 in   Overcast
7:54 AM 59.0 °F 55.9 °F 90% 29.24 in 10.0 mi West 3.5 mph - 0.12 in   Mostly Cloudy
8:02 AM 60.8 °F 55.4 °F 82% 29.24 in 10.0 mi West 4.6 mph - N/A   Mostly Cloudy
8:54 AM 60.1 °F 53.1 °F 78% 29.27 in 10.0 mi WSW 6.9 mph - N/A   Mostly Cloudy
9:54 AM 61.0 °F 51.1 °F 70% 29.29 in 10.0 mi West 13.8 mph - N/A   Mostly Cloudy
10:54 AM 60.1 °F 51.1 °F 72% 29.29 in 10.0 mi SW 8.1 mph 17.3 mph N/A   Mostly Cloudy
11:54 AM 60.1 °F 50.0 °F 69% 29.30 in 7.0 mi WSW 17.3 mph 25.3 mph 0.00 in Rain Light Rain
12:54 PM 62.1 °F 46.9 °F 58% 29.31 in 10.0 mi WSW 18.4 mph 24.2 mph 0.00 in   Mostly Cloudy
1:54 PM 60.1 °F 43.0 °F 53% 29.32 in 10.0 mi WSW 15.0 mph 24.2 mph N/A   Mostly Cloudy
2:54 PM 57.9 °F 41.0 °F 53% 29.35 in 10.0 mi WSW 18.4 mph 27.6 mph N/A   Mostly Cloudy
3:54 PM 57.9 °F 39.9 °F 51% 29.36 in 10.0 mi WSW 13.8 mph 23.0 mph N/A   Mostly Cloudy
4:54 PM 55.9 °F 39.9 °F 55% 29.39 in 10.0 mi SW 21.9 mph 32.2 mph 0.00 in Rain Light Rain
5:54 PM 55.0 °F 39.9 °F 57% 29.43 in 10.0 mi WSW 15.0 mph 20.7 mph 0.00 in   Overcast
6:54 PM 54.0 °F 39.0 °F 57% 29.46 in 10.0 mi SW 12.7 mph - N/A   Overcast
7:54 PM 51.1 °F 39.0 °F 63% 29.49 in 10.0 mi SW 8.1 mph - N/A   Mostly Cloudy
8:54 PM 52.0 °F 37.9 °F 59% 29.50 in 10.0 mi WSW 12.7 mph 20.7 mph N/A   Overcast
9:54 PM 53.1 °F 37.0 °F 55% 29.52 in 10.0 mi SW 15.0 mph 24.2 mph N/A   Overcast
10:54 PM 52.0 °F 37.0 °F 57% 29.53 in 10.0 mi SW 16.1 mph 27.6 mph N/A   Overcast
11:54 PM 51.1 °F 39.0 °F 63% 29.55 in 10.0 mi WSW 16.1 mph 26.5 mph 0.00 in Rain Light Rain